Regional Weather Roundup
Issued by NWS

Home | Current Version | Previous Version | Text Only | Print | Product List | Glossary Off
Versions: 1 2 3 4 5 6 7 8 9 10 11 12 13 14 15 16 17 18 19 20 21 22 23 24 25 26 27 28 29 30 31 32 33 34 35 36 37 38 39 40 41 42 43 44 45 46 47 48 49 50

000
ASUS45 KBOI 211510
RWRID

IDAHO REGIONAL WEATHER ROUNDUP
NATIONAL WEATHER SERVICE BOISE ID
800 AM MST TUE FEB 21 2017

NOTE: "FAIR" INDICATES FEW OR NO CLOUDS BELOW 12000 FEET
WITH NO SIGNIFICANT WEATHER AND/OR OBSTRUCTIONS TO VISIBILITY

IDZ012-014-211600-
SOUTHWEST IDAHO


CITY           SKY/WX    TMP DP  RH WIND       PRES   REMARKS
BOISE          CLEAR     49  32  52 S16G26    29.86R
CALDWELL       CLEAR     50  34  54 S23G31    29.81R
MOUNTAIN HOME  CLEAR     43  41  92 S12       29.89R
$$

IDZ016-017-211600-
SOUTHCENTRAL IDAHO


CITY           SKY/WX    TMP DP  RH WIND       PRES   REMARKS
BURLEY         PTCLDY    45  34  65 NW3       29.93R
JEROME           N/A    N/A N/A N/A MISG      29.94R
TWIN FALLS     PTCLDY    42  33  70 S12       29.93R
$$

IDZ019>023-211600-
SOUTHEAST IDAHO


CITY           SKY/WX    TMP DP  RH WIND       PRES   REMARKS
IDAHO FALLS    LGT RAIN  40  36  86 SW17G30   29.94R WCI  31
POCATELLO      CLOUDY    47  35  63 S20G30    29.93R
REXBURG        CLOUDY    38  35  89 SW16      29.91R WCI  29
$$

IDZ006-010-011-018-031-032-211600-
CENTRAL IDAHO MOUNTAINS


CITY           SKY/WX    TMP DP  RH WIND       PRES   REMARKS
MCCALL         FLURRIES  35  31  85 S24       29.72R WCI  23
HAILEY         CLOUDY    41  34  75 SE15      29.94R
STANLEY          N/A     37  23  56 VRB7G30   29.80F WCI  32
SALMON         MOCLDY    37  34  87 N8        29.72S WCI  31
CHALLIS        CLOUDY    40  31  70 S10       29.78R WCI  33
$$

IDZ002-004-006-007-026-211600-
NORTHERN IDAHO


CITY           SKY/WX    TMP DP  RH WIND       PRES   REMARKS
LEWISTON       CLOUDY    40  37  89 SE10      29.63S WCI  33
LOWELL           N/A     34  33  96 NW5       29.71R WCI  30
COEUR D`ALENE  FLURRIES  33  32  96 N9        29.65S WCI  25
MULLAN PASS    HVY SNOW  27  26  96 SE7       29.55F VSB 1/4 WCI  19
$$



USA.gov is the U.S. government's official web portal to all federal, state and local government web resources and services.